Rifle, CO

2:48 PM MDT on April 25, 2017 (GMT -0600)
Garfield County Regional

Weather History for KRIL - July, 2012

Change the Weather History Date:

Sunday, July 1, 2012

  Actual Average Record
Temperature  
Mean Temperature 78 °F 71 °F  
Max Temperature 101 °F 90 °F 101 °F (2012)
Min Temperature 54 °F 52 °F 33 °F (1968)
Degree Days  
Heating Degree Days 0 0  
Month to date heating degree days 0 0  
Since 1 June heating degree days 10 59  
Since 1 July heating degree days 0 0  
Cooling Degree Days 13 6  
Month to date cooling degree days 13 6  
Year to date cooling degree days 232 108  
Since 1 June cooling degree days 224 101  
Growing Degree Days 28 (Base 50)    
Moisture  
Dew Point 30 °F    
Average Humidity 21    
Maximum Humidity 36    
Minimum Humidity 6    
Precipitation  
Precipitation 0.00 in 0.02 in 0.27 in (1956)
Month to date precipitation 0.00 0.02  
Year to date precipitation 2.57 6.46  
Sea Level Pressure  
Sea Level Pressure 29.74 in    
Wind  
Wind Speed 6 mph (SW)    
Max Wind Speed 25 mph    
Max Gust Speed 30 mph    
Visibility 10 miles    
Events      
T = Trace of Precipitation, MM = Missing Value Source: NWS Daily Summary

Daily Weather History Graph

Daily Weather History Graph

Search for Another Location

Airport or City:

Trip Planner

Search our weather history database for the weather conditions in past years. The results will help you decide how hot, cold, wet, or windy it might be!

Date:

Astronomy

Jul. 01, 2012 Rise Set
Actual Time 5:47 AM MDT 8:42 PM MDT
Civil Twilight 5:15 AM MDT 9:14 PM MDT
Nautical Twilight 4:34 AM MDT 9:55 PM MDT
Astronomical Twilight 3:47 AM MDT 10:42 PM MDT
Moon 6:48 PM MDT (7/1) 3:37 AM MDT (7/1)
Length of Visible Light 15h 59m
Length of Day
14h 54m
Waxing Gibbous, 94% of the Moon is Illuminated
Jul 1
Waxing Gibbous
Jul 3
Full
Jul 10
Last Quarter
Jul 18
New
Jul 26
First Quarter

Hourly Weather History & Observations

Time (MDT) Temp. Dew Point Humidity Pressure Visibility Wind Dir Wind Speed Gust Speed Precip Events Conditions
12:53 AM 69.1 °F 28.0 °F 22% 29.75 in 10.0 mi SE 8.1 mph - N/A   Clear
1:53 AM 66.9 °F 30.9 °F 26% 29.75 in 10.0 mi SE 4.6 mph - N/A   Clear
2:53 AM 60.1 °F 34.0 °F 38% 29.77 in 10.0 mi ENE 4.6 mph - N/A   Clear
3:53 AM 60.1 °F 26.1 °F 27% 29.77 in 10.0 mi Calm Calm - N/A   Clear
4:53 AM 57.0 °F 26.1 °F 30% 29.78 in 10.0 mi SE 3.5 mph - N/A   Clear
6:53 AM 59.0 °F 28.9 °F 32% 29.82 in 10.0 mi East 3.5 mph - N/A   Clear
7:53 AM 66.0 °F 32.0 °F 28% 29.83 in 10.0 mi Calm Calm - N/A   Clear
8:53 AM 72.0 °F 35.1 °F 26% 29.81 in 10.0 mi NW 3.5 mph - N/A   Clear
9:53 AM 79.0 °F 34.0 °F 20% 29.79 in 10.0 mi East 4.6 mph - N/A   Clear
10:53 AM 86.0 °F 35.1 °F 16% 29.76 in 10.0 mi Variable 5.8 mph - N/A   Clear
12:53 PM 95.0 °F 32.0 °F 11% 29.72 in 10.0 mi Variable 3.5 mph - N/A   Clear
1:53 PM 96.1 °F 27.0 °F 9% 29.69 in 10.0 mi WSW 6.9 mph - N/A   Clear
2:53 PM 100.0 °F 21.9 °F 6% 29.67 in 10.0 mi West 15.0 mph 20.7 mph N/A   Clear
3:53 PM 100.9 °F 24.1 °F 7% 29.66 in 10.0 mi WSW 20.7 mph 29.9 mph N/A   Clear
4:53 PM 96.1 °F 24.1 °F 8% 29.68 in 10.0 mi West 17.3 mph 25.3 mph N/A   Clear
5:53 PM 95.0 °F 26.1 °F 9% 29.68 in 10.0 mi West 12.7 mph - N/A   Clear
6:53 PM 96.1 °F 27.0 °F 9% 29.66 in 10.0 mi West 10.4 mph - N/A   Clear
7:53 PM 89.1 °F 30.0 °F 12% 29.67 in 10.0 mi WNW 5.8 mph - N/A   Clear
8:53 PM 86.0 °F 33.1 °F 15% 29.69 in 10.0 mi NNW 8.1 mph 19.6 mph N/A   Clear
9:53 PM 80.1 °F 33.1 °F 18% 29.73 in 10.0 mi Calm Calm - N/A   Clear
10:53 PM 73.9 °F 30.9 °F 21% 29.75 in 10.0 mi SSE 6.9 mph - N/A   Clear
11:53 PM 71.1 °F 32.0 °F 24% 29.75 in 10.0 mi SE 4.6 mph - N/A   Clear